Time,TemperatureF,DewpointF,PressureIn,WindDirection,WindDirectionDegrees,WindSpeedMPH,WindSpeedGustMPH,Humidity,HourlyPrecipIn,Conditions,Clouds,dailyrainin,SoftwareType,DateUTC
2013-02-19 00:00:00,24.6,18.1,30.18,South,177,0.0,1.0,76,0.00,CLR,,0.00,WeatherDisplay:10.37,2013-02-19 05:00:00,
2013-02-19 00:05:00,24.4,17.6,30.18,South,177,0.0,0.0,75,0.00,CLR,,0.00,WeatherDisplay:10.37,2013-02-19 05:05:00,
2013-02-19 00:10:00,24.1,18.2,30.18,South,177,1.7,2.3,78,0.00,CLR,,0.00,WeatherDisplay:10.37,2013-02-19 05:10:00,
2013-02-19 00:15:00,23.7,17.5,30.18,South,177,2.0,3.5,77,0.00,CLR,,0.00,WeatherDisplay:10.37,2013-02-19 05:15:00,
2013-02-19 00:20:00,23.5,18.2,30.18,NE,38,2.1,2.3,80,0.00,CLR,,0.00,WeatherDisplay:10.37,2013-02-19 05:20:00,
2013-02-19 00:25:00,23.5,17.6,30.17,NNE,26,1.2,2.3,78,0.00,CLR,,0.00,WeatherDisplay:10.37,2013-02-19 05:25:00,
2013-02-19 00:30:00,23.4,18.1,30.17,NNW,342,1.7,3.5,80,0.00,CLR,,0.00,WeatherDisplay:10.37,2013-02-19 05:30:00,
2013-02-19 00:35:00,23.4,17.8,30.17,NNW,345,1.2,2.3,79,0.00,CLR,,0.00,WeatherDisplay:10.37,2013-02-19 05:35:00,
2013-02-19 00:40:00,23.3,18.0,30.17,NNE,14,0.7,1.1,80,0.00,CLR,,0.00,WeatherDisplay:10.37,2013-02-19 05:40:00,
2013-02-19 00:46:00,23.3,18.0,30.17,North,11,0.0,0.0,80,0.00,CLR,,0.00,WeatherDisplay:10.37,2013-02-19 05:46:00,
2013-02-19 00:51:00,23.2,17.7,30.17,North,11,0.0,1.1,79,0.00,CLR,,0.00,WeatherDisplay:10.37,2013-02-19 05:51:00,
2013-02-19 00:56:00,23.1,17.3,30.16,North,11,0.0,1.1,78,0.00,CLR,,0.00,WeatherDisplay:10.37,2013-02-19 05:56:00,
2013-02-19 01:01:00,22.9,17.4,30.16,North,11,0.0,0.0,79,0.00,CLR,,0.00,WeatherDisplay:10.37,2013-02-19 06:01:00,
2013-02-19 01:06:00,22.7,17.7,30.16,North,11,1.1,1.1,81,0.00,CLR,,0.00,WeatherDisplay:10.37,2013-02-19 06:06:00,
2013-02-19 01:11:00,22.4,17.0,30.16,North,11,0.0,2.0,81,0.00,,,0.00,weatherlink.com 1.10,2013-02-19 06:11:00,
2013-02-19 01:16:00,22.4,17.5,30.16,ESE,107,0.4,1.1,81,0.00,CLR,,0.00,WeatherDisplay:10.37,2013-02-19 06:16:00,
2013-02-19 01:21:00,22.5,17.3,30.15,South,182,3.5,4.6,80,0.00,CLR,,0.00,WeatherDisplay:10.37,2013-02-19 06:21:00,
2013-02-19 01:26:00,23.3,17.5,30.15,East,82,1.9,3.5,78,0.00,CLR,,0.00,WeatherDisplay:10.37,2013-02-19 06:26:00,
2013-02-19 01:31:00,23.9,16.5,30.15,ESE,118,1.5,3.5,73,0.00,CLR,,0.00,WeatherDisplay:10.37,2013-02-19 06:31:00,
2013-02-19 01:36:00,24.8,15.7,30.15,NE,53,2.5,3.5,68,0.00,CLR,,0.00,WeatherDisplay:10.37,2013-02-19 06:36:00,
2013-02-19 01:41:00,25.6,16.2,30.15,SE,127,1.2,2.3,67,0.00,CLR,,0.00,WeatherDisplay:10.37,2013-02-19 06:41:00,
2013-02-19 01:46:00,26.0,16.2,30.15,South,175,1.5,3.5,66,0.00,CLR,,0.00,WeatherDisplay:10.37,2013-02-19 06:46:00,
2013-02-19 01:51:00,26.1,16.3,30.14,South,175,0.1,1.0,66,0.00,CLR,,0.00,WeatherDisplay:10.37,2013-02-19 06:51:00,
2013-02-19 01:56:00,26.1,16.0,30.14,South,174,0.0,1.0,65,0.00,,,0.00,weatherlink.com 1.10,2013-02-19 06:56:00,
2013-02-19 02:01:00,26.0,16.2,30.14,SSW,200,0.0,0.0,66,0.00,CLR,,0.00,WeatherDisplay:10.37,2013-02-19 07:01:00,
2013-02-19 02:06:00,26.1,15.2,30.14,East,88,0.9,2.3,63,0.00,CLR,,0.00,WeatherDisplay:10.37,2013-02-19 07:06:00,
2013-02-19 02:11:00,26.3,15.4,30.14,East,88,0.0,0.0,63,0.00,CLR,,0.00,WeatherDisplay:10.37,2013-02-19 07:11:00,
2013-02-19 02:16:00,26.3,16.1,30.13,SSW,210,0.2,1.1,65,0.00,CLR,,0.00,WeatherDisplay:10.37,2013-02-19 07:16:00,
2013-02-19 02:21:00,26.1,15.9,30.13,ESE,123,2.5,3.5,65,0.00,CLR,,0.00,WeatherDisplay:10.37,2013-02-19 07:21:00,
2013-02-19 02:26:00,25.8,16.7,30.13,South,178,0.3,1.1,68,0.00,CLR,,0.00,WeatherDisplay:10.37,2013-02-19 07:26:00,
2013-02-19 02:31:00,25.4,16.6,30.12,ESE,120,0.1,1.1,69,0.00,CLR,,0.00,WeatherDisplay:10.37,2013-02-19 07:31:00,
2013-02-19 02:36:00,25.2,16.5,30.12,ESE,120,0.8,2.3,69,0.00,CLR,,0.00,WeatherDisplay:10.37,2013-02-19 07:36:00,
2013-02-19 02:41:00,25.4,15.6,30.12,South,187,1.8,3.5,66,0.00,CLR,,0.00,WeatherDisplay:10.37,2013-02-19 07:41:00,
2013-02-19 02:46:00,25.9,15.7,30.12,South,188,0.8,2.3,65,0.00,CLR,,0.00,WeatherDisplay:10.37,2013-02-19 07:46:00,
2013-02-19 02:51:00,26.1,16.3,30.12,SSE,154,2.4,3.5,66,0.00,CLR,,0.00,WeatherDisplay:10.37,2013-02-19 07:51:00,
2013-02-19 02:56:00,26.9,16.3,30.11,NW,308,3.6,4.6,64,0.00,CLR,,0.00,WeatherDisplay:10.37,2013-02-19 07:56:00,
2013-02-19 03:01:00,27.4,16.8,30.11,SSW,196,6.0,9.2,64,0.00,CLR,,0.00,WeatherDisplay:10.37,2013-02-19 08:01:00,
2013-02-19 03:06:00,27.9,16.9,30.11,SSW,193,3.9,5.8,63,0.00,CLR,,0.00,WeatherDisplay:10.37,2013-02-19 08:06:00,
2013-02-19 03:11:00,27.8,16.8,30.11,SE,141,0.5,2.3,63,0.00,CLR,,0.00,WeatherDisplay:10.37,2013-02-19 08:11:00,
2013-02-19 03:16:00,27.8,16.5,30.11,South,170,1.0,2.3,62,0.00,CLR,,0.00,WeatherDisplay:10.37,2013-02-19 08:16:00,
2013-02-19 03:21:00,27.6,15.9,30.11,SSE,160,1.4,3.5,61,0.00,CLR,,0.00,WeatherDisplay:10.37,2013-02-19 08:21:00,
2013-02-19 03:26:00,27.3,16.0,30.11,SE,132,2.1,4.6,62,0.00,CLR,,0.00,WeatherDisplay:10.37,2013-02-19 08:26:00,
2013-02-19 03:31:00,26.9,16.7,30.11,SW,219,3.4,3.5,65,0.00,CLR,,0.00,WeatherDisplay:10.37,2013-02-19 08:31:00,
2013-02-19 03:36:00,26.5,16.7,30.11,WSW,254,2.3,4.0,66,0.00,CLR,,0.00,WeatherDisplay:10.37,2013-02-19 08:36:00,
2013-02-19 03:41:00,26.5,16.7,30.11,SW,230,0.7,2.3,66,0.00,CLR,,0.00,WeatherDisplay:10.37,2013-02-19 08:41:00,
2013-02-19 03:46:00,26.5,16.7,30.11,South,183,3.3,9.2,66,0.00,CLR,,0.00,WeatherDisplay:10.37,2013-02-19 08:46:00,
2013-02-19 03:51:00,27.1,16.9,30.11,ESE,113,2.0,3.5,65,0.00,CLR,,0.00,WeatherDisplay:10.37,2013-02-19 08:51:00,
2013-02-19 03:56:00,26.8,17.3,30.11,ESE,121,1.9,3.5,67,0.00,CLR,,0.00,WeatherDisplay:10.37,2013-02-19 08:56:00,
2013-02-19 04:01:00,26.4,16.6,30.10,SE,142,1.2,2.3,66,0.00,CLR,,0.00,WeatherDisplay:10.37,2013-02-19 09:01:00,
2013-02-19 04:06:00,26.1,15.9,30.10,SE,142,0.4,2.3,65,0.00,CLR,,0.00,WeatherDisplay:10.37,2013-02-19 09:06:00,
2013-02-19 04:11:00,26.0,16.2,30.10,SE,144,0.1,1.1,66,0.00,CLR,,0.00,WeatherDisplay:10.37,2013-02-19 09:11:00,
2013-02-19 04:16:00,25.9,16.1,30.10,SE,134,2.2,3.5,66,0.00,CLR,,0.00,WeatherDisplay:10.37,2013-02-19 09:16:00,
2013-02-19 04:21:00,25.7,15.6,30.10,SE,134,1.0,2.3,65,0.00,CLR,,0.00,WeatherDisplay:10.37,2013-02-19 09:21:00,
2013-02-19 04:26:00,25.7,15.6,30.10,SE,125,0.0,0.0,65,0.00,CLR,,0.00,WeatherDisplay:10.37,2013-02-19 09:26:00,
2013-02-19 04:31:00,25.5,15.4,30.10,East,81,0.5,1.1,65,0.00,CLR,,0.00,WeatherDisplay:10.37,2013-02-19 09:31:00,
2013-02-19 04:36:00,25.4,15.6,30.09,ENE,78,1.6,2.3,66,0.00,CLR,,0.00,WeatherDisplay:10.37,2013-02-19 09:36:00,
2013-02-19 04:41:00,25.3,16.5,30.09,ENE,78,0.0,0.0,69,0.00,CLR,,0.00,WeatherDisplay:10.37,2013-02-19 09:41:00,
2013-02-19 04:46:00,25.1,16.0,30.08,ENE,78,0.2,1.1,68,0.00,CLR,,0.00,WeatherDisplay:10.37,2013-02-19 09:46:00,
2013-02-19 04:51:00,25.3,15.9,30.08,SE,139,1.3,2.3,67,0.00,CLR,,0.00,WeatherDisplay:10.37,2013-02-19 09:51:00,
2013-02-19 04:56:00,25.3,16.2,30.08,SE,146,0.6,2.3,68,0.00,CLR,,0.00,WeatherDisplay:10.37,2013-02-19 09:56:00,
2013-02-19 05:01:00,25.0,16.9,30.07,WSW,251,0.4,2.3,71,0.00,CLR,,0.00,WeatherDisplay:10.37,2013-02-19 10:01:00,
2013-02-19 05:06:00,24.5,16.4,30.07,South,183,0.9,2.3,71,0.00,CLR,,0.00,WeatherDisplay:10.37,2013-02-19 10:06:00,
2013-02-19 05:11:00,24.1,16.4,30.07,SSE,163,0.3,1.1,72,0.00,CLR,,0.00,WeatherDisplay:10.37,2013-02-19 10:11:00,
2013-02-19 05:16:00,23.8,16.4,30.07,SSE,158,0.3,2.3,73,0.00,CLR,,0.00,WeatherDisplay:10.37,2013-02-19 10:16:00,
2013-02-19 05:21:00,23.4,16.3,30.06,SSE,158,0.0,0.0,74,0.00,CLR,,0.00,WeatherDisplay:10.37,2013-02-19 10:21:00,
2013-02-19 05:26:00,23.2,16.1,30.07,SE,131,0.0,0.0,74,0.00,CLR,,0.00,WeatherDisplay:10.37,2013-02-19 10:26:00,
2013-02-19 05:31:00,22.9,16.2,30.06,SE,131,0.0,0.0,75,0.00,CLR,,0.00,WeatherDisplay:10.37,2013-02-19 10:31:00,
2013-02-19 05:36:00,22.6,16.2,30.06,ESE,123,0.9,2.3,76,0.00,CLR,,0.00,WeatherDisplay:10.37,2013-02-19 10:36:00,
2013-02-19 05:41:00,22.3,15.9,30.06,SE,138,0.3,1.1,76,0.00,CLR,,0.00,WeatherDisplay:10.37,2013-02-19 10:41:00,
2013-02-19 05:46:00,22.3,15.9,30.06,SE,139,0.0,1.1,76,0.00,CLR,,0.00,WeatherDisplay:10.37,2013-02-19 10:46:00,
2013-02-19 05:51:00,22.4,16.3,30.06,SE,139,0.0,1.1,77,0.00,CLR,,0.00,WeatherDisplay:10.37,2013-02-19 10:51:00,
2013-02-19 05:56:00,22.3,15.9,30.05,SE,139,0.0,0.0,76,0.00,CLR,,0.00,WeatherDisplay:10.37,2013-02-19 10:56:00,
2013-02-19 06:01:00,22.2,15.8,30.05,SE,146,0.4,1.1,76,0.00,CLR,,0.00,WeatherDisplay:10.37,2013-02-19 11:01:00,
2013-02-19 06:06:00,22.2,16.1,30.05,SE,146,0.6,2.3,77,0.00,CLR,,0.00,WeatherDisplay:10.37,2013-02-19 11:06:00,
2013-02-19 06:11:00,22.1,16.0,30.05,SSE,154,1.1,4.0,77,0.00,CLR,,0.00,WeatherDisplay:10.37,2013-02-19 11:11:00,
2013-02-19 06:16:00,22.1,16.3,30.04,SE,145,0.5,2.3,78,0.00,CLR,,0.00,WeatherDisplay:10.37,2013-02-19 11:16:00,
2013-02-19 06:21:00,22.2,16.4,30.04,SE,145,1.0,2.3,78,0.00,CLR,,0.00,WeatherDisplay:10.37,2013-02-19 11:21:00,
2013-02-19 06:26:00,22.6,16.8,30.03,SSE,148,0.2,1.1,78,0.00,CLR,,0.00,WeatherDisplay:10.37,2013-02-19 11:26:00,
2013-02-19 06:31:00,23.0,16.9,30.03,SE,142,0.3,2.3,77,0.00,CLR,,0.00,WeatherDisplay:10.37,2013-02-19 11:31:00,
2013-02-19 06:36:00,23.3,16.9,30.03,SE,142,0.7,1.1,76,0.00,CLR,,0.00,WeatherDisplay:10.37,2013-02-19 11:36:00,
2013-02-19 06:41:00,23.4,16.9,30.03,SE,142,0.2,1.1,76,0.00,CLR,,0.00,WeatherDisplay:10.37,2013-02-19 11:41:00,
2013-02-19 06:46:00,23.6,17.1,30.03,SE,140,0.9,1.0,76,0.00,CLR,,0.00,WeatherDisplay:10.37,2013-02-19 11:46:00,
2013-02-19 06:51:00,24.0,17.5,30.03,SE,142,1.5,2.3,76,0.00,CLR,,0.00,WeatherDisplay:10.37,2013-02-19 11:51:00,
2013-02-19 06:56:00,24.4,17.6,30.03,ESE,122,1.2,2.3,75,0.00,CLR,,0.00,WeatherDisplay:10.37,2013-02-19 11:56:00,
2013-02-19 07:01:00,24.8,18.0,30.04,ESE,123,0.8,1.1,75,0.00,CLR,,0.00,WeatherDisplay:10.37,2013-02-19 12:01:00,
2013-02-19 07:06:00,24.9,18.7,30.04,ESE,123,0.0,0.0,77,0.00,CLR,,0.00,WeatherDisplay:10.37,2013-02-19 12:06:00,
2013-02-19 07:11:00,25.0,18.8,30.04,ESE,123,0.0,0.0,77,0.00,CLR,,0.00,WeatherDisplay:10.37,2013-02-19 12:11:00,
2013-02-19 07:16:00,25.2,19.0,30.04,ESE,123,0.6,1.1,77,0.00,CLR,,0.00,WeatherDisplay:10.37,2013-02-19 12:16:00,
2013-02-19 07:21:00,25.7,19.2,30.04,ESE,103,0.8,1.1,76,0.00,CLR,,0.00,WeatherDisplay:10.37,2013-02-19 12:21:00,
2013-02-19 07:26:00,25.8,19.6,30.04,SE,126,0.6,2.3,77,0.00,CLR,,0.00,WeatherDisplay:10.37,2013-02-19 12:26:00,
2013-02-19 07:31:00,25.9,20.0,30.04,SE,126,0.1,1.1,78,0.00,CLR,,0.00,WeatherDisplay:10.37,2013-02-19 12:31:00,
2013-02-19 07:36:00,25.8,19.9,30.04,SE,136,1.1,2.3,78,0.00,CLR,,0.00,WeatherDisplay:10.37,2013-02-19 12:36:00,
2013-02-19 07:41:00,25.9,19.7,30.04,SE,136,0.8,1.1,77,0.00,CLR,,0.00,WeatherDisplay:10.37,2013-02-19 12:41:00,
2013-02-19 07:46:00,26.0,19.8,30.03,SE,136,0.0,1.1,77,0.00,CLR,,0.00,WeatherDisplay:10.37,2013-02-19 12:46:00,
2013-02-19 07:51:00,26.0,20.4,30.04,SE,145,1.4,2.3,79,0.00,CLR,,0.00,WeatherDisplay:10.37,2013-02-19 12:51:00,
2013-02-19 07:56:00,26.3,21.0,30.03,ESE,123,1.1,2.3,80,0.00,CLR,,0.00,WeatherDisplay:10.37,2013-02-19 12:56:00,
2013-02-19 08:01:00,26.8,21.5,30.02,ESE,123,0.6,1.1,80,0.00,CLR,,0.00,WeatherDisplay:10.37,2013-02-19 13:01:00,
2013-02-19 08:06:00,27.3,21.0,30.02,ESE,123,1.5,2.3,77,0.00,CLR,,0.00,WeatherDisplay:10.37,2013-02-19 13:06:00,
2013-02-19 08:11:00,27.7,21.7,30.01,ESE,123,0.9,1.1,78,0.00,CLR,,0.00,WeatherDisplay:10.37,2013-02-19 13:11:00,
2013-02-19 08:16:00,27.9,21.9,30.02,SE,145,0.2,2.3,78,0.00,CLR,,0.00,WeatherDisplay:10.37,2013-02-19 13:16:00,
2013-02-19 08:21:00,28.1,22.1,30.02,SE,145,1.2,2.3,78,0.00,CLR,,0.00,WeatherDisplay:10.37,2013-02-19 13:21:00,
2013-02-19 08:26:00,28.5,22.5,30.02,SE,146,0.3,2.3,78,0.00,CLR,,0.00,WeatherDisplay:10.37,2013-02-19 13:26:00,
2013-02-19 08:31:00,29.0,22.7,30.01,ESE,117,1.4,3.5,77,0.00,CLR,,0.00,WeatherDisplay:10.37,2013-02-19 13:31:00,
2013-02-19 08:36:00,29.7,22.1,30.01,East,98,1.5,2.3,73,0.00,CLR,,0.00,WeatherDisplay:10.37,2013-02-19 13:36:00,
2013-02-19 08:41:00,30.3,22.4,30.00,ESE,121,2.7,4.6,72,0.00,CLR,,0.00,WeatherDisplay:10.37,2013-02-19 13:41:00,
2013-02-19 08:46:00,30.8,22.8,30.01,SSE,153,0.5,3.5,72,0.00,CLR,,0.00,WeatherDisplay:10.37,2013-02-19 13:46:00,
2013-02-19 08:51:00,31.4,23.1,30.00,SSE,150,1.2,3.5,71,0.00,CLR,,0.00,WeatherDisplay:10.37,2013-02-19 13:51:00,
2013-02-19 08:56:00,32.0,23.0,30.00,SSE,148,0.5,1.1,69,0.00,CLR,,0.00,WeatherDisplay:10.37,2013-02-19 13:56:00,
2013-02-19 09:01:00,32.8,23.4,29.99,ENE,77,1.3,2.3,68,0.00,CLR,,0.00,WeatherDisplay:10.37,2013-02-19 14:01:00,
2013-02-19 09:07:00,33.5,24.4,29.99,East,86,1.8,3.5,69,0.00,CLR,,0.00,WeatherDisplay:10.37,2013-02-19 14:07:00,
2013-02-19 09:12:00,33.6,23.4,29.99,North,9,3.6,3.6,66,0.00,CLR,,0.00,WeatherDisplay:10.37,2013-02-19 14:12:00,
2013-02-19 09:17:00,33.7,24.3,29.98,SE,132,2.2,2.3,68,0.00,CLR,,0.00,WeatherDisplay:10.37,2013-02-19 14:17:00,
2013-02-19 09:22:00,33.9,23.7,29.98,SE,146,0.2,1.1,66,0.00,CLR,,0.00,WeatherDisplay:10.37,2013-02-19 14:22:00,
2013-02-19 09:27:00,34.1,23.9,29.97,SE,142,1.1,3.5,66,0.00,CLR,,0.00,WeatherDisplay:10.37,2013-02-19 14:27:00,
2013-02-19 09:32:00,34.4,24.6,29.97,ESE,120,3.7,4.6,67,0.00,CLR,,0.00,WeatherDisplay:10.37,2013-02-19 14:32:00,
2013-02-19 09:37:00,34.3,24.1,29.97,ESE,122,3.0,4.6,66,0.00,CLR,,0.00,WeatherDisplay:10.37,2013-02-19 14:37:00,
2013-02-19 09:42:00,34.4,24.2,29.97,SE,128,1.5,4.6,66,0.00,CLR,,0.00,WeatherDisplay:10.37,2013-02-19 14:42:00,
2013-02-19 09:47:00,35.0,25.1,29.96,East,94,2.2,3.5,67,0.00,CLR,,0.00,WeatherDisplay:10.37,2013-02-19 14:47:00,
2013-02-19 09:52:00,35.7,25.1,29.95,SSE,153,5.7,8.1,65,0.00,CLR,,0.00,WeatherDisplay:10.37,2013-02-19 14:52:00,
2013-02-19 09:57:00,36.0,25.0,29.96,SE,131,2.0,8.0,64,0.00,,,0.00,weatherlink.com 1.10,2013-02-19 14:57:00,
2013-02-19 10:02:00,36.8,25.8,29.94,SE,128,0.8,3.5,64,0.00,CLR,,0.00,WeatherDisplay:10.37,2013-02-19 15:02:00,
2013-02-19 10:07:00,37.3,26.2,29.94,SSE,152,2.7,3.5,64,0.00,CLR,,0.00,WeatherDisplay:10.37,2013-02-19 15:07:00,
2013-02-19 10:12:00,37.2,26.1,29.95,SSW,208,4.7,7.0,64,0.00,CLR,,0.00,WeatherDisplay:10.37,2013-02-19 15:12:00,
2013-02-19 10:17:00,37.1,26.0,29.96,South,186,1.5,3.5,64,0.00,CLR,,0.00,WeatherDisplay:10.37,2013-02-19 15:17:00,
2013-02-19 10:22:00,37.4,26.3,29.96,SSE,162,2.4,3.5,64,0.00,CLR,,0.00,WeatherDisplay:10.37,2013-02-19 15:22:00,
2013-02-19 10:27:00,37.8,27.0,29.95,SSE,150,2.0,8.0,64,0.00,,,0.00,weatherlink.com 1.10,2013-02-19 15:27:00,
2013-02-19 10:32:00,38.0,26.5,29.95,SSE,156,1.5,2.3,63,0.00,CLR,,0.00,WeatherDisplay:10.37,2013-02-19 15:32:00,
2013-02-19 10:37:00,38.2,26.7,29.95,ESE,123,3.2,6.9,63,0.00,CLR,,0.00,WeatherDisplay:10.37,2013-02-19 15:37:00,
2013-02-19 10:42:00,38.4,26.9,29.95,ESE,123,3.1,4.6,63,0.00,CLR,,0.00,WeatherDisplay:10.37,2013-02-19 15:42:00,
2013-02-19 10:47:00,38.8,26.9,29.94,SE,130,1.9,2.3,62,0.00,CLR,,0.00,WeatherDisplay:10.37,2013-02-19 15:47:00,
2013-02-19 10:52:00,39.1,26.8,29.94,ENE,78,1.8,3.5,61,0.00,CLR,,0.00,WeatherDisplay:10.37,2013-02-19 15:52:00,
2013-02-19 10:57:00,39.1,27.2,29.94,South,183,1.5,2.3,62,0.00,CLR,,0.00,WeatherDisplay:10.37,2013-02-19 15:57:00,
2013-02-19 11:02:00,39.4,27.1,29.94,SSW,193,1.5,3.5,61,0.00,CLR,,0.00,WeatherDisplay:10.37,2013-02-19 16:02:00,
2013-02-19 11:07:00,39.7,28.1,29.94,SSE,164,2.0,3.5,63,0.00,CLR,,0.00,WeatherDisplay:10.37,2013-02-19 16:07:00,
2013-02-19 11:12:00,40.1,27.7,29.93,SE,139,3.4,4.6,61,0.00,CLR,,0.00,WeatherDisplay:10.37,2013-02-19 16:12:00,
2013-02-19 11:17:00,40.2,27.8,29.93,SE,128,2.5,3.5,61,0.00,CLR,,0.00,WeatherDisplay:10.37,2013-02-19 16:17:00,
2013-02-19 11:22:00,40.2,27.8,29.93,SE,128,3.6,4.6,61,0.00,CLR,,0.00,WeatherDisplay:10.37,2013-02-19 16:22:00,
2013-02-19 11:27:00,40.1,27.7,29.93,SSE,163,3.2,3.5,61,0.00,CLR,,0.00,WeatherDisplay:10.37,2013-02-19 16:27:00,
2013-02-19 11:32:00,40.0,27.6,29.93,SW,230,3.3,4.6,61,0.00,CLR,,0.00,WeatherDisplay:10.37,2013-02-19 16:32:00,
2013-02-19 11:37:00,39.8,29.7,29.93,SW,217,3.1,4.6,67,0.00,CLR,,0.00,WeatherDisplay:10.37,2013-02-19 16:37:00,
2013-02-19 11:42:00,39.7,31.1,29.93,SSW,201,4.1,5.8,71,0.00,CLR,,0.00,WeatherDisplay:10.37,2013-02-19 16:42:00,
2013-02-19 11:47:00,39.3,32.7,29.93,SSE,168,5.8,11.5,77,0.01,RA,,0.01,WeatherDisplay:10.37,2013-02-19 16:47:00,
2013-02-19 11:52:00,38.4,33.1,29.93,SSW,204,4.0,6.9,81,0.01,RA,,0.01,WeatherDisplay:10.37,2013-02-19 16:52:00,
2013-02-19 11:57:00,37.4,33.0,29.92,SW,222,3.3,8.1,84,0.04,RA,,0.04,WeatherDisplay:10.37,2013-02-19 16:57:00,
2013-02-19 12:02:00,36.6,32.8,29.92,South,190,4.0,9.2,86,0.05,RA,,0.05,WeatherDisplay:10.37,2013-02-19 17:02:00,
2013-02-19 12:07:00,36.1,32.9,29.91,South,178,2.8,3.5,88,0.07,RA,,0.07,WeatherDisplay:10.37,2013-02-19 17:07:00,
2013-02-19 12:12:00,35.8,32.9,29.91,SSE,162,1.6,2.3,89,0.08,RA,,0.09,WeatherDisplay:10.37,2013-02-19 17:12:00,
2013-02-19 12:17:00,35.6,32.7,29.90,SSE,152,1.5,2.3,89,0.10,RA,,0.10,WeatherDisplay:10.37,2013-02-19 17:17:00,
2013-02-19 12:22:00,35.4,32.8,29.90,South,178,1.2,2.3,90,0.11,RA,,0.11,WeatherDisplay:10.37,2013-02-19 17:22:00,
2013-02-19 12:27:00,35.2,32.6,29.89,SSE,157,1.5,3.5,90,0.11,RA,,0.11,WeatherDisplay:10.37,2013-02-19 17:27:00,
2013-02-19 12:32:00,35.1,32.7,29.89,SE,138,1.4,2.3,91,0.12,RA,,0.12,WeatherDisplay:10.37,2013-02-19 17:32:00,
2013-02-19 12:37:00,35.0,32.6,29.88,SE,139,0.0,1.1,91,0.12,RA,,0.12,WeatherDisplay:10.37,2013-02-19 17:37:00,
2013-02-19 12:42:00,34.8,32.4,29.88,SSE,157,1.4,3.5,91,0.13,RA,,0.13,WeatherDisplay:10.37,2013-02-19 17:42:00,
2013-02-19 12:47:00,34.7,32.3,29.88,South,180,1.0,2.3,91,0.13,RA,,0.14,WeatherDisplay:10.37,2013-02-19 17:47:00,
2013-02-19 12:52:00,34.6,32.2,29.87,SSE,161,0.1,1.1,91,0.13,RA,,0.14,WeatherDisplay:10.37,2013-02-19 17:52:00,
2013-02-19 12:57:00,34.4,32.3,29.87,SSE,161,1.0,2.3,92,0.11,RA,,0.15,WeatherDisplay:10.37,2013-02-19 17:57:00,
2013-02-19 13:02:00,34.4,32.3,29.86,South,179,0.4,3.5,92,0.10,RA,,0.15,WeatherDisplay:10.37,2013-02-19 18:02:00,
2013-02-19 13:07:00,34.3,32.2,29.86,South,179,0.4,1.1,92,0.09,RA,,0.16,WeatherDisplay:10.37,2013-02-19 18:07:00,
2013-02-19 13:12:00,34.3,32.2,29.85,South,179,0.8,2.3,92,0.08,RA,,0.16,WeatherDisplay:10.37,2013-02-19 18:12:00,
2013-02-19 13:17:00,34.3,32.2,29.85,SSE,159,0.0,1.1,92,0.07,RA,,0.17,WeatherDisplay:10.37,2013-02-19 18:17:00,
2013-02-19 13:22:00,34.2,32.1,29.85,SSE,159,0.9,2.3,92,0.07,RA,,0.18,WeatherDisplay:10.37,2013-02-19 18:22:00,
2013-02-19 13:27:00,34.3,32.2,29.85,South,173,1.4,3.5,92,0.08,RA,,0.19,WeatherDisplay:10.37,2013-02-19 18:27:00,
2013-02-19 13:32:00,34.4,32.3,29.84,SW,215,1.0,2.3,92,0.07,RA,,0.19,WeatherDisplay:10.37,2013-02-19 18:32:00,
2013-02-19 13:37:00,34.5,32.4,29.84,SW,215,0.4,2.3,92,0.07,CLR,,0.19,WeatherDisplay:10.37,2013-02-19 18:37:00,
2013-02-19 13:42:00,34.6,32.5,29.83,SW,215,0.2,1.1,92,0.07,RA,,0.20,WeatherDisplay:10.37,2013-02-19 18:42:00,
2013-02-19 13:47:00,34.8,33.0,29.83,South,171,1.5,2.3,93,0.06,RA,,0.20,WeatherDisplay:10.37,2013-02-19 18:47:00,
2013-02-19 13:52:00,35.0,33.2,29.82,ESE,121,0.5,2.3,93,0.06,CLR,,0.21,WeatherDisplay:10.37,2013-02-19 18:52:00,
2013-02-19 13:57:00,35.2,33.1,29.82,ESE,121,0.9,1.1,92,0.06,RA,,0.21,WeatherDisplay:10.37,2013-02-19 18:57:00,
2013-02-19 14:02:00,35.4,33.3,29.81,ESE,121,1.2,2.3,92,0.06,RA,,0.21,WeatherDisplay:10.37,2013-02-19 19:02:00,
2013-02-19 14:07:00,35.6,33.8,29.81,ENE,60,1.3,2.3,93,0.06,RA,,0.22,WeatherDisplay:10.37,2013-02-19 19:07:00,
2013-02-19 14:12:00,35.8,34.0,29.81,NE,51,0.2,1.1,93,0.06,RA,,0.22,WeatherDisplay:10.37,2013-02-19 19:12:00,
2013-02-19 14:17:00,36.0,33.9,29.80,NNW,346,1.5,2.3,92,0.06,RA,,0.23,WeatherDisplay:10.37,2013-02-19 19:17:00,
2013-02-19 14:22:00,36.2,34.4,29.79,SSW,206,2.0,3.5,93,0.05,RA,,0.23,WeatherDisplay:10.37,2013-02-19 19:22:00,
2013-02-19 14:27:00,36.6,34.5,29.79,NW,305,2.2,3.5,92,0.04,,,0.23,WeatherDisplay:10.37,2013-02-19 19:27:00,
2013-02-19 14:32:00,36.7,34.9,29.79,SW,222,1.9,3.5,93,0.05,RA,,0.24,WeatherDisplay:10.37,2013-02-19 19:32:00,
2013-02-19 14:37:00,37.1,35.3,29.78,West,275,3.6,5.8,93,0.05,RA,,0.24,WeatherDisplay:10.37,2013-02-19 19:37:00,
2013-02-19 14:42:00,37.3,35.5,29.78,SSW,194,1.2,2.3,93,0.05,RA,,0.25,WeatherDisplay:10.37,2013-02-19 19:42:00,
2013-02-19 14:47:00,37.5,35.7,29.78,SW,231,1.5,2.3,93,0.05,RA,,0.25,WeatherDisplay:10.37,2013-02-19 19:47:00,
2013-02-19 14:52:00,37.5,35.7,29.78,SW,231,0.8,1.1,93,0.06,RA,,0.26,WeatherDisplay:10.37,2013-02-19 19:52:00,
2013-02-19 14:57:00,37.5,35.7,29.77,SW,231,0.0,0.0,93,0.05,RA,,0.26,WeatherDisplay:10.37,2013-02-19 19:57:00,
2013-02-19 15:02:00,37.6,35.8,29.77,SW,231,0.7,1.1,93,0.06,RA,,0.27,WeatherDisplay:10.37,2013-02-19 20:02:00,
2013-02-19 15:07:00,37.7,35.9,29.77,SW,231,0.0,0.0,93,0.05,RA,,0.27,WeatherDisplay:10.37,2013-02-19 20:07:00,
2013-02-19 15:12:00,37.7,35.9,29.77,SW,231,0.5,1.1,93,0.06,RA,,0.28,WeatherDisplay:10.37,2013-02-19 20:12:00,
2013-02-19 15:17:00,37.7,35.9,29.76,SW,231,0.2,0.0,93,0.05,RA,,0.28,WeatherDisplay:10.37,2013-02-19 20:17:00,
2013-02-19 15:22:00,37.9,36.1,29.76,East,82,0.2,1.1,93,0.06,RA,,0.29,WeatherDisplay:10.37,2013-02-19 20:22:00,
2013-02-19 15:27:00,37.9,36.1,29.76,ESE,113,0.3,1.1,93,0.06,RA,,0.29,WeatherDisplay:10.37,2013-02-19 20:27:00,
2013-02-19 15:32:00,38.0,36.2,29.75,WSW,247,0.1,1.1,93,0.05,CLR,,0.29,WeatherDisplay:10.37,2013-02-19 20:32:00,
2013-02-19 15:37:00,38.1,36.3,29.75,SSW,209,1.0,2.0,93,0.05,CLR,,0.29,WeatherDisplay:10.37,2013-02-19 20:37:00,
2013-02-19 15:42:00,38.2,36.4,29.75,South,178,0.6,1.1,93,0.05,RA,,0.30,WeatherDisplay:10.37,2013-02-19 20:42:00,
2013-02-19 15:47:00,38.2,36.4,29.75,South,178,0.4,1.0,93,0.05,RA,,0.30,WeatherDisplay:10.37,2013-02-19 20:47:00,
2013-02-19 15:52:00,38.2,36.4,29.74,South,178,0.9,1.1,93,0.04,CLR,,0.30,WeatherDisplay:10.37,2013-02-19 20:52:00,
2013-02-19 15:57:00,38.3,36.5,29.74,South,175,0.7,2.3,93,0.04,CLR,,0.30,WeatherDisplay:10.37,2013-02-19 20:57:00,
2013-02-19 16:02:00,38.3,36.5,29.74,South,175,1.2,2.3,93,0.03,CLR,,0.30,WeatherDisplay:10.37,2013-02-19 21:02:00,
2013-02-19 16:07:00,38.2,36.4,29.73,South,175,0.2,1.1,93,0.03,CLR,,0.30,WeatherDisplay:10.37,2013-02-19 21:07:00,
2013-02-19 16:12:00,38.0,36.2,29.73,South,175,0.1,1.1,93,0.03,RA,,0.31,WeatherDisplay:10.37,2013-02-19 21:12:00,
2013-02-19 16:17:00,37.9,36.1,29.73,South,175,0.0,0.0,93,0.03,RA,,0.31,WeatherDisplay:10.37,2013-02-19 21:17:00,
2013-02-19 16:22:00,37.8,36.0,29.72,South,175,0.0,1.1,93,0.02,CLR,,0.31,WeatherDisplay:10.37,2013-02-19 21:22:00,
2013-02-19 16:27:00,37.7,35.9,29.73,South,175,0.9,1.1,93,0.03,RA,,0.32,WeatherDisplay:10.37,2013-02-19 21:27:00,
2013-02-19 16:32:00,37.7,35.9,29.73,ENE,57,0.8,2.3,93,0.04,RA,,0.33,WeatherDisplay:10.37,2013-02-19 21:32:00,
2013-02-19 16:37:00,37.8,36.0,29.72,NE,47,0.7,1.1,93,0.04,RA,,0.33,WeatherDisplay:10.37,2013-02-19 21:37:00,
2013-02-19 16:42:00,37.9,36.1,29.72,SE,137,1.0,2.0,93,0.03,,,0.33,WeatherDisplay:10.37,2013-02-19 21:42:00,
2013-02-19 16:47:00,38.0,36.2,29.72,SE,138,0.4,2.3,93,0.04,RA,,0.34,WeatherDisplay:10.37,2013-02-19 21:47:00,
2013-02-19 16:52:00,37.8,36.0,29.71,SE,138,0.0,0.0,93,0.05,RA,,0.35,WeatherDisplay:10.37,2013-02-19 21:52:00,
2013-02-19 16:57:00,37.8,36.0,29.71,SE,138,0.0,0.0,93,0.05,RA,,0.35,WeatherDisplay:10.37,2013-02-19 21:57:00,
2013-02-19 17:02:00,37.8,36.0,29.71,SSE,157,0.0,1.1,93,0.06,RA,,0.36,WeatherDisplay:10.37,2013-02-19 22:02:00,
2013-02-19 17:07:00,37.8,36.0,29.70,SSE,151,0.0,0.0,93,0.06,RA,,0.36,WeatherDisplay:10.37,2013-02-19 22:07:00,
2013-02-19 17:12:00,38.0,35.9,29.70,SSW,196,0.2,1.1,92,0.06,RA,,0.37,WeatherDisplay:10.37,2013-02-19 22:12:00,
2013-02-19 17:17:00,38.1,36.0,29.70,SSW,196,1.4,2.3,92,0.06,RA,,0.37,WeatherDisplay:10.37,2013-02-19 22:17:00,
2013-02-19 17:22:00,38.4,36.3,29.70,SW,233,1.1,2.3,92,0.06,CLR,,0.37,WeatherDisplay:10.37,2013-02-19 22:22:00,
2013-02-19 17:27:00,38.6,36.5,29.71,South,186,1.5,3.5,92,0.05,CLR,,0.37,WeatherDisplay:10.37,2013-02-19 22:27:00,
2013-02-19 17:32:00,38.9,36.8,29.70,SSW,192,1.6,2.3,92,0.04,CLR,,0.37,WeatherDisplay:10.37,2013-02-19 22:32:00,
2013-02-19 17:37:00,39.1,37.0,29.71,SSW,193,0.7,2.3,92,0.05,RA,,0.38,WeatherDisplay:10.37,2013-02-19 22:37:00,
2013-02-19 17:42:00,39.3,37.2,29.70,WSW,250,0.2,2.3,92,0.05,RA,,0.38,WeatherDisplay:10.37,2013-02-19 22:42:00,
2013-02-19 17:47:00,39.4,37.3,29.70,SE,146,1.8,2.3,92,0.04,,,0.38,WeatherDisplay:10.37,2013-02-19 22:47:00,
2013-02-19 17:53:00,39.1,37.2,29.70,SE,145,0.0,0.0,93,0.03,CLR,,0.38,WeatherDisplay:10.37,2013-02-19 22:53:00,
2013-02-19 17:58:00,38.7,36.9,29.71,SSE,152,1.0,1.1,93,0.03,CLR,,0.38,WeatherDisplay:10.37,2013-02-19 22:58:00,
2013-02-19 18:03:00,38.4,36.6,29.71,SSE,165,0.8,1.1,93,0.02,CLR,,0.38,WeatherDisplay:10.37,2013-02-19 23:03:00,
2013-02-19 18:08:00,38.2,36.4,29.71,South,190,0.6,3.5,93,0.02,CLR,,0.38,WeatherDisplay:10.37,2013-02-19 23:08:00,
2013-02-19 18:13:00,38.5,36.4,29.71,South,190,0.9,1.1,92,0.01,CLR,,0.38,WeatherDisplay:10.37,2013-02-19 23:13:00,
2013-02-19 18:18:00,38.4,36.6,29.70,South,190,0.0,0.0,93,0.01,CLR,,0.38,WeatherDisplay:10.37,2013-02-19 23:18:00,
2013-02-19 18:23:00,38.2,36.4,29.70,South,190,0.0,0.0,93,0.01,CLR,,0.38,WeatherDisplay:10.37,2013-02-19 23:23:00,
2013-02-19 18:28:00,38.2,36.1,29.70,South,190,0.0,0.0,92,0.01,CLR,,0.38,WeatherDisplay:10.37,2013-02-19 23:28:00,
2013-02-19 18:33:00,38.2,36.1,29.69,South,190,0.0,0.0,92,0.01,CLR,,0.38,WeatherDisplay:10.37,2013-02-19 23:33:00,
2013-02-19 18:38:00,38.3,36.2,29.69,South,190,0.1,1.1,92,0.00,CLR,,0.38,WeatherDisplay:10.37,2013-02-19 23:38:00,
2013-02-19 18:43:00,38.5,36.4,29.69,SW,218,0.4,1.1,92,0.00,CLR,,0.38,WeatherDisplay:10.37,2013-02-19 23:43:00,
2013-02-19 18:48:00,38.5,36.4,29.70,SW,218,1.0,2.3,92,0.00,CLR,,0.38,WeatherDisplay:10.37,2013-02-19 23:48:00,
2013-02-19 18:53:00,38.5,36.4,29.70,WSW,249,2.5,3.5,92,0.00,CLR,,0.38,WeatherDisplay:10.37,2013-02-19 23:53:00,
2013-02-19 18:58:00,38.8,36.7,29.70,WSW,246,2.6,3.5,92,0.00,CLR,,0.38,WeatherDisplay:10.37,2013-02-19 23:58:00,
2013-02-19 19:03:00,39.0,36.9,29.70,WSW,245,1.7,3.5,92,0.01,RA,,0.39,WeatherDisplay:10.37,2013-02-20 00:03:00,
2013-02-19 19:08:00,39.1,37.0,29.71,SW,234,1.6,3.5,92,0.02,RA,,0.40,WeatherDisplay:10.37,2013-02-20 00:08:00,
2013-02-19 19:13:00,39.0,36.9,29.71,WSW,237,1.9,3.5,92,0.02,RA,,0.40,WeatherDisplay:10.37,2013-02-20 00:13:00,
2013-02-19 19:18:00,39.1,37.0,29.71,South,173,1.6,2.3,92,0.02,CLR,,0.40,WeatherDisplay:10.37,2013-02-20 00:18:00,
2013-02-19 19:23:00,38.9,36.8,29.70,SSW,210,1.2,2.3,92,0.02,CLR,,0.40,WeatherDisplay:10.37,2013-02-20 00:23:00,
2013-02-19 19:28:00,38.9,36.8,29.70,WSW,244,1.6,3.5,92,0.03,RA,,0.41,WeatherDisplay:10.37,2013-02-20 00:28:00,
2013-02-19 19:33:00,39.2,37.1,29.70,SSW,211,1.3,3.5,92,0.03,RA,,0.41,WeatherDisplay:10.37,2013-02-20 00:33:00,
2013-02-19 19:38:00,39.3,37.2,29.70,WSW,257,2.2,4.6,92,0.03,CLR,,0.41,WeatherDisplay:10.37,2013-02-20 00:38:00,
2013-02-19 19:43:00,39.3,37.2,29.70,WSW,240,1.8,3.5,92,0.03,CLR,,0.41,WeatherDisplay:10.37,2013-02-20 00:43:00,
2013-02-19 19:48:00,39.3,37.2,29.70,West,261,2.2,4.6,92,0.03,CLR,,0.41,WeatherDisplay:10.37,2013-02-20 00:48:00,
2013-02-19 19:53:00,39.4,37.3,29.70,West,259,2.7,3.5,92,0.03,CLR,,0.41,WeatherDisplay:10.37,2013-02-20 00:53:00,
2013-02-19 19:58:00,39.4,37.3,29.70,SSE,161,5.1,9.2,92,0.03,CLR,,0.41,WeatherDisplay:10.37,2013-02-20 00:58:00,
2013-02-19 20:03:00,39.5,37.6,29.70,West,268,4.2,6.9,93,0.02,CLR,,0.41,WeatherDisplay:10.37,2013-02-20 01:03:00,
2013-02-19 20:08:00,39.5,37.6,29.70,WSW,252,6.8,10.4,93,0.01,CLR,,0.41,WeatherDisplay:10.37,2013-02-20 01:08:00,
2013-02-19 20:13:00,39.6,37.7,29.70,WSW,258,8.4,11.5,93,0.01,CLR,,0.41,WeatherDisplay:10.37,2013-02-20 01:13:00,
2013-02-19 20:18:00,39.4,37.5,29.71,SW,229,8.8,11.5,93,0.01,CLR,,0.41,WeatherDisplay:10.37,2013-02-20 01:18:00,
2013-02-19 20:23:00,39.3,37.4,29.71,West,261,7.8,13.8,93,0.01,CLR,,0.41,WeatherDisplay:10.37,2013-02-20 01:23:00,
2013-02-19 20:28:00,38.9,36.8,29.71,West,259,9.5,12.7,92,0.00,CLR,,0.41,WeatherDisplay:10.37,2013-02-20 01:28:00,
2013-02-19 20:33:00,38.6,36.5,29.71,WSW,251,8.1,11.5,92,0.00,CLR,,0.41,WeatherDisplay:10.37,2013-02-20 01:33:00,
2013-02-19 20:38:00,38.4,36.0,29.70,WSW,255,3.8,5.8,91,0.00,CLR,,0.41,WeatherDisplay:10.37,2013-02-20 01:38:00,
2013-02-19 20:43:00,38.2,36.1,29.70,SSW,195,3.4,6.9,92,0.00,CLR,,0.41,WeatherDisplay:10.37,2013-02-20 01:43:00,
2013-02-19 20:48:00,38.0,35.6,29.71,West,265,4.9,8.1,91,0.00,CLR,,0.41,WeatherDisplay:10.37,2013-02-20 01:48:00,
2013-02-19 20:53:00,37.8,35.4,29.71,WSW,253,4.5,5.8,91,0.00,CLR,,0.41,WeatherDisplay:10.37,2013-02-20 01:53:00,
2013-02-19 20:58:00,37.5,35.4,29.71,West,261,3.6,5.8,92,0.00,CLR,,0.41,WeatherDisplay:10.37,2013-02-20 01:58:00,
2013-02-19 21:03:00,37.4,35.3,29.72,WSW,250,6.6,11.5,92,0.00,CLR,,0.41,WeatherDisplay:10.37,2013-02-20 02:03:00,
2013-02-19 21:08:00,37.3,35.2,29.71,WSW,238,8.4,12.7,92,0.00,CLR,,0.41,WeatherDisplay:10.37,2013-02-20 02:08:00,
2013-02-19 21:13:00,37.3,35.2,29.71,West,264,6.5,11.5,92,0.00,CLR,,0.41,WeatherDisplay:10.37,2013-02-20 02:13:00,
2013-02-19 21:18:00,37.1,35.0,29.71,SW,233,7.1,10.4,92,0.00,CLR,,0.41,WeatherDisplay:10.37,2013-02-20 02:18:00,
2013-02-19 21:23:00,37.0,34.9,29.71,WSW,242,4.6,8.1,92,0.00,CLR,,0.41,WeatherDisplay:10.37,2013-02-20 02:23:00,
2013-02-19 21:28:00,36.9,34.8,29.72,WSW,251,6.9,10.4,92,0.00,CLR,,0.41,WeatherDisplay:10.37,2013-02-20 02:28:00,
2013-02-19 21:33:00,36.8,34.7,29.73,West,262,4.5,12.7,92,0.00,CLR,,0.41,WeatherDisplay:10.37,2013-02-20 02:33:00,
2013-02-19 21:38:00,36.8,34.4,29.73,WSW,244,5.9,9.0,91,0.00,CLR,,0.41,WeatherDisplay:10.37,2013-02-20 02:38:00,
2013-02-19 21:43:00,36.8,34.4,29.73,WSW,252,7.5,10.4,91,0.00,CLR,,0.41,WeatherDisplay:10.37,2013-02-20 02:43:00,
2013-02-19 21:48:00,36.6,33.9,29.73,West,267,3.6,5.8,90,0.00,CLR,,0.41,WeatherDisplay:10.37,2013-02-20 02:48:00,
2013-02-19 21:53:00,36.6,33.7,29.74,WSW,242,6.0,11.5,89,0.00,CLR,,0.41,WeatherDisplay:10.37,2013-02-20 02:53:00,
2013-02-19 21:58:00,36.6,32.8,29.74,WSW,254,9.0,11.5,86,0.00,CLR,,0.41,WeatherDisplay:10.37,2013-02-20 02:58:00,
2013-02-19 22:03:00,36.8,32.1,29.74,SW,234,6.1,13.8,83,0.00,CLR,,0.41,WeatherDisplay:10.37,2013-02-20 03:03:00,
2013-02-19 22:08:00,36.8,31.5,29.74,West,259,7.5,11.5,81,0.00,CLR,,0.41,WeatherDisplay:10.37,2013-02-20 03:08:00,
2013-02-19 22:13:00,36.9,30.0,29.74,WNW,298,14.4,17.3,76,0.00,CLR,,0.41,WeatherDisplay:10.37,2013-02-20 03:13:00,
2013-02-19 22:18:00,36.9,29.4,29.74,West,265,11.9,17.3,74,0.00,CLR,,0.41,WeatherDisplay:10.37,2013-02-20 03:18:00,
2013-02-19 22:23:00,36.6,29.4,29.74,WNW,292,5.3,8.1,75,0.00,CLR,,0.41,WeatherDisplay:10.37,2013-02-20 03:23:00,
2013-02-19 22:28:00,36.4,29.2,29.74,WSW,252,9.2,10.4,75,0.00,CLR,,0.41,WeatherDisplay:10.37,2013-02-20 03:28:00,
2013-02-19 22:33:00,36.5,28.7,29.74,SW,232,8.0,11.5,73,0.00,CLR,,0.41,WeatherDisplay:10.37,2013-02-20 03:33:00,
2013-02-19 22:38:00,36.3,28.5,29.74,West,273,7.3,11.5,73,0.00,CLR,,0.41,WeatherDisplay:10.37,2013-02-20 03:38:00,
2013-02-19 22:43:00,36.2,28.7,29.75,WSW,239,3.7,6.9,74,0.00,CLR,,0.41,WeatherDisplay:10.37,2013-02-20 03:43:00,
2013-02-19 22:48:00,36.1,28.3,29.74,West,269,11.2,16.0,73,0.00,CLR,,0.41,WeatherDisplay:10.37,2013-02-20 03:48:00,
2013-02-19 22:53:00,36.0,28.2,29.75,West,259,6.9,12.7,73,0.00,CLR,,0.41,WeatherDisplay:10.37,2013-02-20 03:53:00,
2013-02-19 22:58:00,35.9,27.7,29.75,NW,306,10.0,15.0,72,0.00,CLR,,0.41,WeatherDisplay:10.37,2013-02-20 03:58:00,
2013-02-19 23:03:00,35.7,27.6,29.75,West,278,13.5,18.4,72,0.00,CLR,,0.41,WeatherDisplay:10.37,2013-02-20 04:03:00,
2013-02-19 23:08:00,35.6,27.5,29.75,West,269,8.0,11.5,72,0.00,CLR,,0.41,WeatherDisplay:10.37,2013-02-20 04:08:00,
2013-02-19 23:13:00,35.5,27.4,29.75,WNW,298,10.0,19.6,72,0.00,CLR,,0.41,WeatherDisplay:10.37,2013-02-20 04:13:00,
2013-02-19 23:18:00,35.1,27.6,29.75,West,267,6.8,11.5,74,0.00,CLR,,0.41,WeatherDisplay:10.37,2013-02-20 04:18:00,
2013-02-19 23:23:00,35.1,27.3,29.75,WNW,301,10.0,17.3,73,0.00,CLR,,0.41,WeatherDisplay:10.37,2013-02-20 04:23:00,
2013-02-19 23:28:00,35.0,27.2,29.75,WNW,288,7.9,9.2,73,0.00,CLR,,0.41,WeatherDisplay:10.37,2013-02-20 04:28:00,
2013-02-19 23:33:00,35.1,26.6,29.75,WNW,297,7.4,17.3,71,0.00,CLR,,0.41,WeatherDisplay:10.37,2013-02-20 04:33:00,
2013-02-19 23:38:00,35.0,26.5,29.75,WNW,294,6.5,13.8,71,0.00,CLR,,0.41,WeatherDisplay:10.37,2013-02-20 04:38:00,
2013-02-19 23:43:00,34.9,25.8,29.75,WNW,288,11.4,18.4,69,0.00,CLR,,0.41,WeatherDisplay:10.37,2013-02-20 04:43:00,
2013-02-19 23:48:00,34.7,25.6,29.75,WNW,290,8.9,13.8,69,0.00,CLR,,0.41,WeatherDisplay:10.37,2013-02-20 04:48:00,
2013-02-19 23:53:00,34.7,25.2,29.75,West,280,13.7,19.6,68,0.00,CLR,,0.41,WeatherDisplay:10.37,2013-02-20 04:53:00,
2013-02-19 23:58:00,34.5,25.4,29.75,West,280,7.1,9.2,69,0.00,CLR,,0.41,WeatherDisplay:10.37,2013-02-20 04:58:00,